When you browse on this site, cookies collect data to enhance your experience and personalize the content and advertising you see.
Visit our Privacy Policy to learn more. By continuing to use the site, you agree to this use of cookies and data.
  • In United Kingdom
  • List of Countries
  • For 7 days
  • Water Temperature
  • Satellite Maps
  • Weather Map
  • Weather Widgets
  • user-avatar
    Login

    Hourly Weather Livingstone

    Today, 26 May, Sunday

    Time Temperature Precipitation Wind Pressure Humidity
    00:00 +19°C° 0 mm 1 mps 686 mmHg 63%
    01:00 +18°C° 0 mm 1 mps 686 mmHg 65%
    02:00 +16°C° 0 mm 1 mps 686 mmHg 68%
    03:00 +16°C° 0 mm 1 mps 686 mmHg 67%
    04:00 +15°C° 0 mm 2 mps 686 mmHg 67%
    05:00 +14°C° 0 mm 2 mps 685 mmHg 67%
    06:00 +15°C° 0 mm 2 mps 686 mmHg 63%
    07:00 +16°C° 0 mm 3 mps 686 mmHg 59%
    08:00 +16°C° 0 mm 3 mps 687 mmHg 55%
    09:00 +19°C° 0 mm 3 mps 687 mmHg 48%
    10:00 +22°C° 0 mm 3 mps 688 mmHg 41%
    11:00 +25°C° 0 mm 3 mps 688 mmHg 35%
    12:00 +27°C° 0 mm 3 mps 687 mmHg 32%
    13:00 +28°C° 0 mm 3 mps 687 mmHg 28%
    14:00 +29°C° 0 mm 3 mps 686 mmHg 25%
    15:00 +28°C° 0 mm 3 mps 686 mmHg 27%
    16:00 +27°C° 0 mm 3 mps 685 mmHg 28%
    17:00 +26°C° 0 mm 3 mps 685 mmHg 30%
    18:00 +24°C° 0 mm 3 mps 685 mmHg 37%
    19:00 +21°C° 0 mm 2 mps 685 mmHg 44%
    20:00 +18°C° 0 mm 2 mps 685 mmHg 51%
    21:00 +18°C° 0 mm 2 mps 685 mmHg 54%
    22:00 +18°C° 0 mm 1 mps 685 mmHg 56%
    23:00 +16°C° 0 mm 1 mps 685 mmHg 59%

    Tomorrow, 27 May, Monday

    Time Temperature Precipitation Wind Pressure Humidity
    00:00 +16°C° 0 mm 1 mps 685 mmHg 60%
    01:00 +16°C° 0 mm 1 mps 685 mmHg 61%
    02:00 +15°C° 0 mm 1 mps 685 mmHg 62%
    03:00 +15°C° 0 mm 1 mps 685 mmHg 65%
    04:00 +14°C° 0 mm 1 mps 685 mmHg 68%
    05:00 +13°C° 0 mm 2 mps 684 mmHg 71%
    06:00 +14°C° 0 mm 2 mps 685 mmHg 67%
    07:00 +15°C° 0 mm 2 mps 685 mmHg 64%
    08:00 +16°C° 0 mm 2 mps 686 mmHg 61%
    09:00 +19°C° 0 mm 2 mps 686 mmHg 53%
    10:00 +23°C° 0 mm 2 mps 687 mmHg 45%
    11:00 +26°C° 0 mm 3 mps 687 mmHg 36%
    12:00 +27°C° 0 mm 3 mps 687 mmHg 33%
    13:00 +28°C° 0 mm 3 mps 686 mmHg 29%
    14:00 +29°C° 0 mm 3 mps 685 mmHg 25%
    15:00 +28°C° 0 mm 3 mps 685 mmHg 26%
    16:00 +27°C° 0 mm 3 mps 684 mmHg 28%
    17:00 +27°C° 0 mm 3 mps 684 mmHg 29%
    18:00 +25°C° 0 mm 3 mps 684 mmHg 35%
    19:00 +21°C° 0 mm 3 mps 684 mmHg 41%
    20:00 +19°C° 0 mm 2 mps 684 mmHg 46%
    21:00 +18°C° 0 mm 2 mps 684 mmHg 50%
    22:00 +17°C° 0 mm 2 mps 684 mmHg 54%
    23:00 +16°C° 0 mm 1 mps 684 mmHg 57%

    Day after tomorrow, 28 May, Tuesday

    Time Temperature Precipitation Wind Pressure Humidity
    00:00 +16°C° 0 mm 1 mps 684 mmHg 59%
    01:00 +16°C° 0 mm 1 mps 684 mmHg 60%
    02:00 +15°C° 0 mm 1 mps 684 mmHg 62%
    03:00 +15°C° 0 mm 1 mps 684 mmHg 63%
    04:00 +15°C° 0 mm 2 mps 684 mmHg 65%
    05:00 +14°C° 0 mm 2 mps 684 mmHg 66%
    06:00 +15°C° 0 mm 2 mps 684 mmHg 65%
    07:00 +16°C° 0 mm 2 mps 685 mmHg 64%
    08:00 +16°C° 0 mm 2 mps 685 mmHg 62%
    09:00 +19°C° 0 mm 2 mps 686 mmHg 52%
    10:00 +24°C° 0 mm 3 mps 686 mmHg 42%
    11:00 +27°C° 0 mm 3 mps 687 mmHg 32%
    12:00 +28°C° 0 mm 3 mps 686 mmHg 29%
    13:00 +29°C° 0 mm 3 mps 685 mmHg 26%
    14:00 +29°C° 0 mm 3 mps 685 mmHg 23%
    15:00 +29°C° 0 mm 3 mps 684 mmHg 25%
    16:00 +28°C° 0 mm 3 mps 684 mmHg 27%
    17:00 +27°C° 0 mm 3 mps 683 mmHg 29%
    18:00 +25°C° 0 mm 3 mps 683 mmHg 36%
    19:00 +23°C° 0 mm 2 mps 684 mmHg 42%
    20:00 +19°C° 0 mm 2 mps 684 mmHg 49%
    21:00 +18°C° 0 mm 2 mps 684 mmHg 52%
    22:00 +19°C° 0 mm 1 mps 684 mmHg 55%
    23:00 +18°C° 0 mm 1 mps 684 mmHg 58%

    29 May, Wednesday

    Time Temperature Precipitation Wind Pressure Humidity
    00:00 +16°C° 0 mm 1 mps 684 mmHg 58%
    01:00 +16°C° 0 mm 1 mps 683 mmHg 58%
    02:00 +16°C° 0 mm 1 mps 683 mmHg 58%
    03:00 +15°C° 0 mm 1 mps 683 mmHg 60%
    04:00 +15°C° 0 mm 1 mps 683 mmHg 61%
    05:00 +14°C° 0 mm 1 mps 683 mmHg 62%
    06:00 +15°C° 0 mm 1 mps 684 mmHg 61%
    07:00 +16°C° 0 mm 1 mps 685 mmHg 59%
    08:00 +18°C° 0 mm 1 mps 685 mmHg 58%
    09:00 +20°C° 0 mm 2 mps 686 mmHg 49%
    10:00 +24°C° 0 mm 2 mps 686 mmHg 40%
    11:00 +27°C° 0 mm 3 mps 686 mmHg 31%
    12:00 +28°C° 0 mm 2 mps 686 mmHg 28%
    13:00 +29°C° 0 mm 2 mps 685 mmHg 25%
    14:00 +31°C° 0 mm 1 mps 685 mmHg 22%
    15:00 +30°C° 0 mm 2 mps 684 mmHg 23%
    16:00 +29°C° 0 mm 2 mps 684 mmHg 24%
    17:00 +28°C° 0 mm 2 mps 683 mmHg 26%
    18:00 +26°C° 0 mm 2 mps 684 mmHg 31%
    19:00 +23°C° 0 mm 2 mps 684 mmHg 37%
    20:00 +20°C° 0 mm 2 mps 684 mmHg 42%
    21:00 +19°C° 0 mm 2 mps 684 mmHg 45%
    22:00 +19°C° 0 mm 1 mps 684 mmHg 48%
    23:00 +18°C° 0 mm 1 mps 684 mmHg 51%

    30 May, Thursday

    Time Temperature Precipitation Wind Pressure Humidity
    00:00 +18°C° 0 mm 1 mps 684 mmHg 51%
    01:00 +18°C° 0 mm 1 mps 683 mmHg 52%
    02:00 +16°C° 0 mm 1 mps 683 mmHg 52%
    03:00 +16°C° 0 mm 1 mps 683 mmHg 53%
    04:00 +16°C° 0 mm 1 mps 683 mmHg 53%
    05:00 +15°C° 0 mm 1 mps 683 mmHg 54%
    06:00 +16°C° 0 mm 1 mps 684 mmHg 52%
    07:00 +18°C° 0 mm 1 mps 684 mmHg 51%
    08:00 +19°C° 0 mm 1 mps 685 mmHg 49%
    09:00 +21°C° 0 mm 2 mps 685 mmHg 43%
    10:00 +25°C° 0 mm 2 mps 686 mmHg 37%
    11:00 +27°C° 0 mm 2 mps 686 mmHg 31%
    12:00 +29°C° 0 mm 2 mps 686 mmHg 27%
    13:00 +30°C° 0 mm 2 mps 685 mmHg 24%
    14:00 +31°C° 0 mm 1 mps 684 mmHg 21%
    15:00 +30°C° 0 mm 2 mps 684 mmHg 22%
    16:00 +29°C° 0 mm 2 mps 684 mmHg 23%
    17:00 +28°C° 0 mm 2 mps 683 mmHg 24%
    18:00 +26°C° 0 mm 2 mps 683 mmHg 29%
    19:00 +24°C° 0 mm 2 mps 683 mmHg 35%
    20:00 +20°C° 0 mm 2 mps 683 mmHg 40%
    21:00 +19°C° 0 mm 2 mps 683 mmHg 45%
    22:00 +19°C° 0 mm 2 mps 683 mmHg 49%
    23:00 +19°C° 0 mm 1 mps 683 mmHg 53%

    31 May, Friday

    Time Temperature Precipitation Wind Pressure Humidity
    00:00 +18°C° 0 mm 1 mps 683 mmHg 54%
    01:00 +18°C° 0 mm 1 mps 683 mmHg 55%
    02:00 +16°C° 0 mm 1 mps 683 mmHg 56%
    03:00 +16°C° 0 mm 1 mps 683 mmHg 58%
    04:00 +15°C° 0 mm 1 mps 683 mmHg 60%
    05:00 +15°C° 0 mm 1 mps 683 mmHg 62%
    06:00 +16°C° 0 mm 1 mps 683 mmHg 59%
    07:00 +16°C° 0 mm 0 mps 684 mmHg 55%
    08:00 +17°C° 0 mm 0 mps 684 mmHg 52%
    09:00 +22°C° 0 mm 1 mps 685 mmHg 44%
    10:00 +26°C° 0 mm 1 mps 685 mmHg 36%
    11:00 +29°C° 0 mm 2 mps 685 mmHg 28%
    12:00 +30°C° 0 mm 2 mps 685 mmHg 24%
    13:00 +31°C° 0 mm 2 mps 684 mmHg 21%
    14:00 +32°C° 0 mm 2 mps 684 mmHg 18%
    15:00 +31°C° 0 mm 2 mps 684 mmHg 19%
    16:00 +30°C° 0 mm 2 mps 683 mmHg 20%
    17:00 +29°C° 0 mm 2 mps 683 mmHg 22%
    18:00 +27°C° 0 mm 2 mps 683 mmHg 26%
    19:00 +24°C° 0 mm 2 mps 684 mmHg 30%
    20:00 +21°C° 0 mm 2 mps 684 mmHg 35%
    21:00 +21°C° 0 mm 1 mps 684 mmHg 37%
    22:00 +20°C° 0 mm 1 mps 684 mmHg 39%
    23:00 +20°C° 0 mm 1 mps 684 mmHg 41%
    Show more